When you browse on this site, cookies collect data to enhance your experience and personalize the content and advertising you see.
Visit our Privacy Policy to learn more. By continuing to use the site, you agree to this use of cookies and data.
  • în România
  • Lista ţărilor
  • Pe 7 zile
  • Temperatura apei
  • Hartă satelitară
  • Meteo pe hartă
  • Widget-uri
  • user-avatar
    Intrare

    Meteo pe oră la Kadzice

    Astăzi, 20 Mai, Luni

    Timp Temperatura Precipitaţii Vânt Presiune Umiditate
    00:00 +14°C° 0 mm 2 m/s 733 mmHg 92%
    01:00 +14°C° 0 mm 2 m/s 733 mmHg 92%
    02:00 +14°C° 0 mm 2 m/s 732 mmHg 93%
    03:00 +14°C° 0 mm 2 m/s 732 mmHg 94%
    04:00 +13°C° 0 mm 3 m/s 732 mmHg 95%
    05:00 +14°C° 0 mm 3 m/s 732 mmHg 90%
    06:00 +17°C° 0 mm 4 m/s 732 mmHg 85%
    07:00 +19°C° 0 mm 5 m/s 732 mmHg 77%
    08:00 +20°C° 0 mm 5 m/s 732 mmHg 72%
    09:00 +21°C° 0 mm 6 m/s 733 mmHg 67%
    10:00 +22°C° 0 mm 6 m/s 733 mmHg 61%
    11:00 +23°C° 0 mm 6 m/s 733 mmHg 59%
    12:00 +23°C° 0 mm 6 m/s 733 mmHg 56%
    13:00 +23°C° 0 mm 4 m/s 734 mmHg 57%
    14:00 +22°C° 0 mm 4 m/s 734 mmHg 59%
    15:00 +22°C° 0 mm 4 m/s 734 mmHg 61%
    16:00 +22°C° 0 mm 4 m/s 734 mmHg 63%
    17:00 +21°C° 0.1 mm 4 m/s 734 mmHg 68%
    18:00 +19°C° 0.1 mm 4 m/s 734 mmHg 74%
    19:00 +17°C° 0.1 mm 3 m/s 733 mmHg 79%
    20:00 +16°C° 0 mm 3 m/s 733 mmHg 82%
    21:00 +15°C° 0 mm 2 m/s 733 mmHg 84%
    22:00 +14°C° 0 mm 2 m/s 734 mmHg 86%
    23:00 +13°C° 0 mm 2 m/s 734 mmHg 87%

    Mâine, 21 Mai, Marţi

    Timp Temperatura Precipitaţii Vânt Presiune Umiditate
    00:00 +13°C° 0 mm 1 m/s 733 mmHg 87%
    01:00 +12°C° 0 mm 1 m/s 733 mmHg 88%
    02:00 +12°C° 0 mm 1 m/s 733 mmHg 88%
    03:00 +12°C° 0 mm 1 m/s 733 mmHg 88%
    04:00 +12°C° 0 mm 2 m/s 733 mmHg 88%
    05:00 +13°C° 0 mm 2 m/s 733 mmHg 85%
    06:00 +15°C° 0 mm 2 m/s 733 mmHg 81%
    07:00 +16°C° 0 mm 2 m/s 733 mmHg 78%
    08:00 +17°C° 0.2 mm 2 m/s 733 mmHg 77%
    09:00 +18°C° 0.2 mm 3 m/s 733 mmHg 76%
    10:00 +19°C° 0.2 mm 3 m/s 733 mmHg 74%
    11:00 +18°C° 1.3 mm 3 m/s 732 mmHg 77%
    12:00 +18°C° 1.3 mm 3 m/s 732 mmHg 79%
    13:00 +18°C° 1.3 mm 3 m/s 732 mmHg 82%
    14:00 +17°C° 1.6 mm 3 m/s 732 mmHg 84%
    15:00 +17°C° 1.6 mm 3 m/s 731 mmHg 86%
    16:00 +16°C° 1.6 mm 3 m/s 731 mmHg 87%
    17:00 +15°C° 0.9 mm 4 m/s 731 mmHg 87%
    18:00 +15°C° 0.9 mm 5 m/s 731 mmHg 87%
    19:00 +15°C° 0.9 mm 5 m/s 731 mmHg 87%
    20:00 +15°C° 1.1 mm 6 m/s 731 mmHg 88%
    21:00 +14°C° 1.1 mm 6 m/s 731 mmHg 89%
    22:00 +14°C° 1.1 mm 7 m/s 731 mmHg 90%
    23:00 +14°C° 1.1 mm 7 m/s 732 mmHg 91%

    Poimâine, 22 Mai, Miercuri

    Timp Temperatura Precipitaţii Vânt Presiune Umiditate
    00:00 +14°C° 1.1 mm 7 m/s 732 mmHg 91%
    01:00 +14°C° 1.1 mm 7 m/s 732 mmHg 92%
    02:00 +13°C° 0.9 mm 6 m/s 732 mmHg 92%
    03:00 +13°C° 0.9 mm 6 m/s 732 mmHg 92%
    04:00 +13°C° 0.9 mm 6 m/s 732 mmHg 92%
    05:00 +13°C° 0.6 mm 6 m/s 732 mmHg 91%
    06:00 +14°C° 0.6 mm 6 m/s 732 mmHg 91%
    07:00 +14°C° 0.6 mm 6 m/s 732 mmHg 90%
    08:00 +14°C° 0.5 mm 5 m/s 732 mmHg 90%
    09:00 +14°C° 0.5 mm 5 m/s 733 mmHg 90%
    10:00 +14°C° 0.5 mm 4 m/s 733 mmHg 90%
    11:00 +14°C° 0.9 mm 4 m/s 733 mmHg 91%
    12:00 +14°C° 0.9 mm 3 m/s 733 mmHg 92%
    13:00 +14°C° 0.9 mm 3 m/s 733 mmHg 92%
    14:00 +14°C° 0.4 mm 3 m/s 733 mmHg 91%
    15:00 +15°C° 0.4 mm 4 m/s 733 mmHg 89%
    16:00 +15°C° 0.4 mm 4 m/s 733 mmHg 87%
    17:00 +15°C° 1.2 mm 5 m/s 733 mmHg 88%
    18:00 +15°C° 1.2 mm 5 m/s 734 mmHg 90%
    19:00 +14°C° 1.2 mm 6 m/s 734 mmHg 91%
    20:00 +14°C° 0.7 mm 6 m/s 734 mmHg 91%
    21:00 +14°C° 0.7 mm 6 m/s 735 mmHg 92%
    22:00 +14°C° 0.7 mm 7 m/s 735 mmHg 93%
    23:00 +14°C° 0.2 mm 7 m/s 735 mmHg 93%

    23 Mai, Joi

    Timp Temperatura Precipitaţii Vânt Presiune Umiditate
    00:00 +14°C° 0.2 mm 6 m/s 736 mmHg 94%
    01:00 +14°C° 0.2 mm 6 m/s 736 mmHg 95%
    02:00 +14°C° 0.6 mm 6 m/s 736 mmHg 95%
    03:00 +14°C° 0.6 mm 6 m/s 736 mmHg 95%
    04:00 +13°C° 0.6 mm 5 m/s 737 mmHg 95%
    05:00 +13°C° 0.9 mm 6 m/s 737 mmHg 94%
    06:00 +13°C° 0.9 mm 6 m/s 738 mmHg 94%
    07:00 +13°C° 0.9 mm 6 m/s 738 mmHg 94%
    08:00 +12°C° 0.9 mm 7 m/s 738 mmHg 93%
    09:00 +11°C° 0.9 mm 7 m/s 739 mmHg 93%
    10:00 +11°C° 0.9 mm 7 m/s 739 mmHg 93%
    11:00 +10°C° 0.2 mm 7 m/s 740 mmHg 93%
    12:00 +10°C° 0.2 mm 7 m/s 740 mmHg 92%
    13:00 +10°C° 0.2 mm 7 m/s 740 mmHg 92%
    14:00 +10°C° 0.1 mm 6 m/s 740 mmHg 91%
    15:00 +10°C° 0.1 mm 6 m/s 741 mmHg 90%
    16:00 +10°C° 0.1 mm 6 m/s 741 mmHg 89%
    17:00 +10°C° 0 mm 5 m/s 741 mmHg 88%
    18:00 +10°C° 0 mm 4 m/s 741 mmHg 87%
    19:00 +10°C° 0 mm 4 m/s 741 mmHg 86%
    20:00 +10°C° 0 mm 4 m/s 741 mmHg 86%
    21:00 +10°C° 0 mm 4 m/s 741 mmHg 85%
    22:00 +10°C° 0 mm 4 m/s 741 mmHg 85%
    23:00 +10°C° 0 mm 4 m/s 741 mmHg 85%

    24 Mai, Vineri

    Timp Temperatura Precipitaţii Vânt Presiune Umiditate
    00:00 +10°C° 0 mm 4 m/s 741 mmHg 85%
    01:00 +10°C° 0 mm 4 m/s 741 mmHg 85%
    02:00 +9°C° 0 mm 3 m/s 741 mmHg 86%
    03:00 +9°C° 0 mm 3 m/s 741 mmHg 88%
    04:00 +8°C° 0 mm 3 m/s 741 mmHg 89%
    05:00 +9°C° 0 mm 3 m/s 741 mmHg 84%
    06:00 +10°C° 0 mm 3 m/s 741 mmHg 80%
    07:00 +11°C° 0 mm 3 m/s 741 mmHg 75%
    08:00 +13°C° 0 mm 4 m/s 740 mmHg 69%
    09:00 +14°C° 0 mm 4 m/s 740 mmHg 63%
    10:00 +15°C° 0 mm 4 m/s 740 mmHg 56%
    11:00 +17°C° 0 mm 4 m/s 740 mmHg 55%
    12:00 +17°C° 0 mm 3 m/s 739 mmHg 53%
    13:00 +18°C° 0 mm 3 m/s 739 mmHg 51%
    14:00 +18°C° 0 mm 3 m/s 739 mmHg 52%
    15:00 +18°C° 0 mm 3 m/s 738 mmHg 53%
    16:00 +18°C° 0 mm 3 m/s 738 mmHg 55%
    17:00 +17°C° 0 mm 2 m/s 738 mmHg 60%
    18:00 +15°C° 0 mm 2 m/s 737 mmHg 65%
    19:00 +14°C° 0 mm 1 m/s 737 mmHg 71%
    20:00 +13°C° 0 mm 1 m/s 737 mmHg 72%
    21:00 +12°C° 0 mm 1 m/s 738 mmHg 74%
    22:00 +11°C° 0 mm 1 m/s 738 mmHg 75%
    23:00 +10°C° 0 mm 1 m/s 738 mmHg 78%

    25 Mai, Sâmbătă

    Timp Temperatura Precipitaţii Vânt Presiune Umiditate
    00:00 +10°C° 0 mm 1 m/s 738 mmHg 80%
    01:00 +9°C° 0 mm 1 m/s 737 mmHg 83%
    02:00 +9°C° 0 mm 1 m/s 737 mmHg 83%
    03:00 +9°C° 0 mm 1 m/s 737 mmHg 84%
    04:00 +8°C° 0 mm 1 m/s 737 mmHg 84%
    05:00 +10°C° 0 mm 1 m/s 737 mmHg 80%
    06:00 +12°C° 0 mm 1 m/s 737 mmHg 76%
    07:00 +14°C° 0 mm 1 m/s 737 mmHg 71%
    08:00 +16°C° 0 mm 1 m/s 737 mmHg 67%
    09:00 +18°C° 0 mm 1 m/s 737 mmHg 62%
    10:00 +20°C° 0 mm 1 m/s 737 mmHg 57%
    11:00 +20°C° 0 mm 1 m/s 737 mmHg 55%
    12:00 +21°C° 0 mm 1 m/s 737 mmHg 52%
    13:00 +22°C° 0 mm 1 m/s 737 mmHg 49%
    14:00 +22°C° 0 mm 1 m/s 736 mmHg 50%
    15:00 +22°C° 0 mm 1 m/s 736 mmHg 50%
    16:00 +23°C° 0 mm 1 m/s 736 mmHg 50%
    17:00 +21°C° 0 mm 1 m/s 736 mmHg 56%
    18:00 +20°C° 0 mm 1 m/s 736 mmHg 62%
    19:00 +18°C° 0 mm 1 m/s 736 mmHg 68%
    20:00 +16°C° 0 mm 1 m/s 737 mmHg 73%
    21:00 +15°C° 0 mm 2 m/s 737 mmHg 77%
    22:00 +14°C° 0 mm 2 m/s 737 mmHg 82%
    23:00 +14°C° 0 mm 2 m/s 737 mmHg 86%
    Arată mai mult